Location: Roland
(31.1349°N, 85.4372°W)
Time: 22:00:01
(UTC+00:00)

Tiros 1 - Pass Details

Date: 19 April 2021
Orbit: 630 x 664 km, 48.4° (Epoch: 05 May)

Event Time Altitude Azimuth Distance (km) Brightness Sun altitude
Rises 22:42:23 0° 298° (WNW) 2,914 11.7 18.3°
Reaches altitude 10° 22:44:58 10° 286° (WNW) 2,006 11.6 17.8°
Maximum altitude 22:48:51 27° 229° (SW) 1,211 9.4 16.9°
Drops below altitude 10° 22:52:45 10° 171° (S) 2,010 9.6 16.1°
Sets 22:55:20 0° 159° (SSE) 2,920 10.3 15.6°
